#timestamp,LO_Frequency,Hit 
1503669615.7,286046995.1,N
1503669635.5,286046995.9,N
1503669655.4,286046995.2,N
1503669675.2,286046995.8,N
1503669695.0,286046997.6,N
1503669695.9,286046997.6,N
1503669715.8,286046997.0,N
1503669735.6,286046999.2,N
1503669755.4,286046998.9,N
1503669775.3,286046996.5,N
1503669795.1,286046996.7,N
1503669796.0,286046996.7,N
1503669815.8,286046994.9,N
1503669835.7,286046995.0,N
1503669855.5,286046996.4,N
1503669875.3,286046991.7,P
1503669895.2,286046997.2,N
1503669915.9,286046997.1,N
1503669935.7,286046997.3,N
1503669955.6,286046995.6,N
1503669975.4,286046995.9,N
1503669995.2,286046995.1,N
1503670015.1,286046993.3,P
1503670016.0,286046993.3,P
1503670035.8,286046998.1,N
1503670055.6,286047000.3,N
1503670075.5,286047001.2,N
1503670095.3,286047001.2,N
1503670115.1,286046998.5,N
1503670135.9,286046998.4,N
1503670155.7,286047000.6,N
1503670175.5,286047000.7,N
1503670195.3,286046996.8,N
1503670215.2,286046996.8,N
1503670235.9,286046997.4,N
1503670255.7,286046997.6,N
1503670275.6,286046994.2,N
1503670295.4,286046993.6,N
1503670315.2,286046991.7,P
1503670335.1,286046996.0,N
1503670336.0,286046996.0,N
1503670355.8,286046996.4,N
1503670375.6,286046996.2,N
1503670395.5,286046997.3,N
1503670415.3,286046997.7,N
1503670435.1,286046998.0,N
1503670455.9,286046998.0,N
1503670475.7,286046997.3,N
1503670495.5,286046999.5,N
1503670515.4,286046996.5,N
1503670535.2,286046998.0,N
1503670555.0,286046993.5,P
1503670555.9,286046993.5,P
1503670575.8,286046997.1,N
1503670595.6,286046995.1,N
1503670615.4,286046995.7,N
1503670635.3,286046996.5,N
1503670655.1,286046999.6,N
1503670656.0,286046999.6,N
1503670675.8,286046998.7,N
1503670695.6,286046997.0,N
1503670715.5,286046998.2,N
1503670735.3,286046997.3,N
1503670755.1,286046996.9,N
1503670775.9,286047013.3,P
1503670795.7,286047014.8,N
1503670815.5,286047009.3,N
1503670835.4,286047013.8,N
1503670855.2,286047024.7,P
1503670875.0,286047018.4,N
1503670876.0,286047018.4,N
1503670895.8,286047011.0,N
1503670915.6,286047014.4,N
1503670935.4,286047004.2,N
1503670955.3,286047002.4,N
1503670975.1,286046999.3,N
1503670995.8,286046999.0,N
1503671015.7,286047005.6,N
1503671035.5,286047007.3,N
1503671055.3,286047008.3,N
1503671075.2,286047005.6,N
1503671095.9,286047003.1,N
1503671115.7,286047006.7,N
1503671135.6,286047018.9,N
1503671155.4,286047024.5,P
1503671175.2,286047016.9,N
1503671195.1,286047019.3,P
1503671196.0,286047019.3,P
1503671215.8,286047000.9,N
1503671235.6,286046998.1,N
1503671255.5,286046993.9,N
1503671275.3,286046996.7,N
1503671295.1,286047005.1,N
1503671315.9,286047006.5,N
1503671335.7,286047007.5,N
1503671355.5,286047001.4,N
1503671375.4,286047000.7,N
1503671395.2,286046995.3,N
1503671415.0,286046991.6,N
1503671415.9,286046991.6,N
1503671435.8,286046987.0,N
1503671455.6,286046983.7,N
1503671475.4,286046985.1,N
1503671495.2,286046989.7,N
1503671515.1,286046989.4,N
1503671516.0,286046989.4,N
1503671535.8,286046985.3,N
1503671555.6,286046985.8,N
1503671575.5,286046984.3,N
1503671595.3,286046982.3,N
1503671615.1,286046986.1,N
1503671635.9,286046989.5,N
1503671655.7,286046984.7,N
1503671675.5,286046982.8,N
1503671695.4,286046981.2,N
1503671715.2,286046982.5,N
1503671735.0,286046980.8,N
1503671735.9,286046980.8,N
1503671755.8,286046986.7,N
1503671775.6,286046992.9,N
1503671795.4,286046998.9,N
1503671815.2,286046998.3,N
1503671835.1,286046996.8,N
1503671836.0,286046996.8,N
1503671855.8,286047002.9,N
1503671875.6,286047007.7,N
1503671895.5,286047005.5,N
1503671915.3,286047010.5,N
1503671935.1,286047010.7,N
1503671955.9,286047012.2,N
1503671975.7,286047012.7,N
1503671995.5,286047012.7,N
1503672015.4,286047028.9,N
1503672035.2,286047039.1,P
1503672055.0,286047036.8,N
1503672055.9,286047036.8,N
1503672075.8,286047042.0,N
1503672095.6,286047034.2,N
1503672115.4,286047031.0,N
1503672135.3,286047031.2,N
1503672155.1,286047027.6,N
1503672156.0,286047027.6,N
1503672175.8,286047025.7,N
1503672195.7,286047029.9,N
1503672215.5,286047023.8,N
1503672235.3,286047019.4,N
1503672255.1,286047016.3,N
1503672275.9,286047014.9,N
1503672295.7,286047015.4,N
1503672315.5,286047007.3,N
1503672335.4,286047003.1,N
1503672355.2,286047005.0,N
1503672375.0,286047003.6,N
1503672375.9,286047003.6,N
1503672395.8,286047005.9,N
1503672415.6,286047002.3,N
1503672435.4,286046999.3,N
1503672455.3,286046997.7,N
1503672475.1,286047002.3,N
1503672476.0,286047002.3,N
1503672495.8,286047000.2,N
1503672515.7,286046998.0,N
1503672535.5,286046993.9,N
1503672555.3,286046991.4,N
1503672575.1,286046991.0,N
1503672595.9,286046989.5,N
1503672615.7,286046993.1,N
1503672635.5,286046990.7,N
1503672655.4,286046986.4,N
1503672675.2,286046980.6,N
1503672695.0,286046983.3,N
1503672695.9,286046983.3,N
1503672715.8,286046980.8,N
1503672735.6,286046988.4,N
1503672755.4,286046991.5,N
1503672775.3,286046990.9,N
1503672795.1,286046990.5,N
1503672796.0,286046990.5,N
1503672815.8,286046989.2,N
1503672835.7,286046988.6,N
1503672855.5,286046987.4,N
1503672875.3,286046989.7,N
1503672895.1,286046985.0,N
1503672915.9,286046979.4,P
1503672935.7,286046989.0,N
1503672955.6,286046989.5,N
1503672975.4,286046990.7,N
1503672995.2,286046998.1,N
1503673015.0,286046997.5,N
1503673015.9,286046997.5,N
1503673035.8,286046998.4,N
1503673055.6,286047009.8,N
1503673075.4,286047009.8,N
1503673095.3,286047013.8,N
1503673115.1,286047005.7,N
1503673135.8,286046997.8,N
1503673155.7,286046995.2,N
1503673175.5,286046996.6,N
1503673195.3,286046995.1,N
